This is the latest recevied weather packets stored in our database for station/object WY1B. If no packets are shown the sender has not sent any weather packets the latest 10 day(s).
| Time | Temp. | Humidity | Pressure | Rain* | Wind** | Luminosity | Snow |
|---|---|---|---|---|---|---|---|
| 1787670047 | 32.78° C | 33% | 1006.7 hPa | 0 mm | - | 47 W/m² | - |
| 1787669742 | 32.78° C | 34% | 1006.9 hPa | 0 mm | - | 46 W/m² | - |
| 1787669436 | 32.78° C | 35% | 1006.7 hPa | 0 mm | - | 47 W/m² | - |
| 1787669132 | 32.78° C | 33% | 1006.7 hPa | 0 mm | - | 46 W/m² | - |
| 1787668828 | 32.78° C | 33% | 1006.8 hPa | 0 mm | - | 47 W/m² | - |
| 1787668525 | 32.22° C | 34% | 1006.6 hPa | 0 mm | - | 43 W/m² | - |
| 1787668220 | 32.22° C | 35% | 1006.9 hPa | 0 mm | - | 42 W/m² | - |
| 1787667919 | 31.11° C | 40% | 1006.9 hPa | 0 mm | - | 42 W/m² | - |
| 1787667619 | 30° C | 43% | 1007 hPa | 0 mm | - | 43 W/m² | - |
| 1787667316 | 30° C | 43% | 1006.8 hPa | 0 mm | - | 90 W/m² | - |
| 1787667015 | 29.44° C | 43% | 1006.9 hPa | 0 mm | - | 80 W/m² | - |
| 1787666711 | 28.89° C | 44% | 1006.7 hPa | 0 mm | - | 36 W/m² | - |
| 1787666411 | 28.89° C | 45% | 1006.8 hPa | 0 mm | - | 34 W/m² | - |
| 1787666106 | 28.89° C | 44% | 1006.4 hPa | 0 mm | - | 32 W/m² | - |
| 1787665806 | 28.89° C | 43% | 1006.4 hPa | 0 mm | - | 30 W/m² | - |
| 1787665502 | 28.89° C | 42% | 1006.5 hPa | 0 mm | - | 28 W/m² | - |
| 1787665202 | 28.89° C | 42% | 1006.1 hPa | 0 mm | - | 26 W/m² | - |
| 1787664899 | 28.89° C | 41% | 1006.1 hPa | 0 mm | - | 23 W/m² | - |
| 1787664594 | 28.89° C | 40% | 1006.1 hPa | 0 mm | - | 21 W/m² | - |
| 1787664289 | 28.89° C | 40% | 1006.1 hPa | 0 mm | - | 18 W/m² | - |
| 1787663988 | 28.89° C | 39% | 1006 hPa | 0 mm | - | 15 W/m² | - |
| 1787663683 | 28.89° C | 40% | 1005.9 hPa | 0 mm | - | 12 W/m² | - |
| 1787663378 | 28.89° C | 39% | 1005.9 hPa | 0 mm | - | 9 W/m² | - |
| 1787663075 | 28.89° C | 40% | 1005.8 hPa | 0 mm | - | 6 W/m² | - |
| 1787662770 | 28.89° C | 39% | 1005.8 hPa | 0 mm | - | 3 W/m² | - |
* Rain latest hour (hover to see other rain measurements)
** Current wind speed in m/s (hover to see current wind gust speed)